This is the latest recevied weather packets stored in our database for station/object W4SNA-2. If no packets are shown the sender has not sent any weather packets the latest 10 day(s).
| Time | Temp. | Humidity | Pressure | Rain* | Wind** | Luminosity | Snow |
|---|---|---|---|---|---|---|---|
| 1777656738 | 15.56° C | 50% | 1015.4 hPa | 0 mm | - | - | - |
| 1777656438 | 15.56° C | 50% | 1015.4 hPa | 0 mm | - | - | - |
| 1777656138 | 15.56° C | 52% | 1015.4 hPa | 0 mm | - | - | - |
| 1777655837 | 15° C | 51% | 1015.7 hPa | 0 mm | - | - | - |
| 1777655538 | 15° C | 51% | 1015.6 hPa | 0 mm | - | - | - |
| 1777655238 | 14.44° C | 53% | 1015.6 hPa | 0 mm | - | - | - |
| 1777654938 | 14.44° C | 57% | 1015.7 hPa | 0 mm | - | - | - |
| 1777654638 | 14.44° C | 56% | 1015.5 hPa | 0 mm | - | - | - |
| 1777654338 | 14.44° C | 52% | 1015.7 hPa | 0 mm | - | - | - |
| 1777654038 | 14.44° C | 56% | 1015.8 hPa | 0 mm | - | - | - |
| 1777653738 | 15° C | 52% | 1015.8 hPa | 0 mm | - | - | - |
| 1777653438 | 14.44° C | 57% | 1015.8 hPa | 0 mm | - | - | - |
| 1777653138 | 13.89° C | 58% | 1015.8 hPa | 0 mm | - | - | - |
| 1777652838 | 13.33° C | 58% | 1015.9 hPa | 0 mm | - | - | - |
| 1777652538 | 13.89° C | 59% | 1015.9 hPa | 0 mm | - | - | - |
| 1777652237 | 13.89° C | 58% | 1016 hPa | 0 mm | - | - | - |
| 1777651938 | 13.89° C | 56% | 1016 hPa | 0 mm | - | - | - |
| 1777651638 | 13.33° C | 58% | 1016.2 hPa | 0 mm | - | - | - |
| 1777651337 | 13.33° C | 57% | 1016.3 hPa | 0 mm | - | - | - |
| 1777651037 | 13.89° C | 56% | 1016.3 hPa | 0 mm | - | - | - |
| 1777650737 | 14.44° C | 54% | 1016.3 hPa | 0 mm | - | - | - |
| 1777650438 | 13.89° C | 60% | 1016.4 hPa | 0 mm | - | - | - |
| 1777650129 | 12.78° C | 61% | 1016.5 hPa | 0 mm | - | - | - |
| 1777649745 | 12.22° C | 61% | 1016.6 hPa | 0 mm | - | - | - |
| 1777649444 | 12.78° C | 57% | 1016.6 hPa | 0 mm | - | - | - |
* Rain latest hour (hover to see other rain measurements)
** Current wind speed in m/s (hover to see current wind gust speed)